Station NPDW3 - Northport Pier at Death's Door, WI Image indicating link to RSS feed of recent meteorological observations for station NPDW3


Conditions at NPDW3 as of
(10:00 pm CDT on 04/14/2024)
0300 GMT on 04/15/2024:
     

Click on the graph icon in the table below to see a time series plot of the last five days of that observation.

5-day plot - Wind Direction Wind Direction (WDIR):ESE ( 120 deg true )
5-day plot - Wind Speed Wind Speed (WSPD): 1.9 kts
5-day plot - Wind Gust Wind Gust (GST): 2.9 kts
5-day plot - Atmospheric Pressure Atmospheric Pressure (PRES):29.89 in
5-day plot - Pressure Tendency Pressure Tendency (PTDY):+0.06 in ( Rising )
5-day plot - Wind Speed at 10 Meters Wind Speed at 10 meters (WSPD10M): 1.9 kts
5-day plot - Wind Speed at 20 Meters Wind Speed at 20 meters (WSPD20M): 1.9 kts
5-day plot -  Wind Speed, Wind Gust and Atmospheric Pressure Combined plot of Wind Speed, Gust, and Air Pressure
Previous observations
TIME
(CDT)
5-day plot - Wind Direction
WDIR
 
5-day plot - Wind Speed
WSPD
kts
5-day plot - Wind Gust
GST
kts
5-day plot - Wave Height
WVHT
ft
5-day plot - Dominant Wave Period
DPD
sec
5-day plot - Average Wave Period
APD
sec
5-day plot - Mean Wave Direction
MWD
 
5-day plot - Atmospheric Pressure
PRES
in
5-day plot - Pressure Tendency
PTDY
in
5-day plot - Air Temperature
ATMP
°F
5-day plot - Water Temperature
WTMP
°F
5-day plot - Dew Point
DEWP
°F
5-day plot - Salinity
SAL
psu
5-day plot - Visibility
VIS
nmi
5-day plot - Tide (above MLLW)
TIDE
ft
2024-04-14 09:50 pm- 0.0 2.9----29.89-------
2024-04-14 09:00 pm- 0.0 1.9----29.88+0.07------
2024-04-14 08:50 pm- 0.0 1.0----29.88-------
2024-04-14 08:00 pm- 0.0 1.0----29.85+0.07------
2024-04-14 07:50 pmENE 1.0 6.0----29.85-------
2024-04-14 07:00 pmESE 1.0-----29.83+0.07------
2024-04-14 06:50 pm E 2.9-----29.82-------
2024-04-14 06:00 pm E 1.9-----29.81+0.06------
2024-04-14 05:50 pm E 4.1-----29.80-------
2024-04-14 05:00 pmESE 8.9-----29.78+0.04------
2024-04-14 04:50 pmESE 8.0-----29.78-------
2024-04-14 04:00 pm SE 8.0-----29.76+0.03------
2024-04-14 03:50 pm SE 8.0-----29.76-------
2024-04-14 03:00 pmESE 7.0-----29.75+0.03------
2024-04-14 02:50 pmESE 7.0-----29.75-------
2024-04-14 02:00 pm E 6.0-----29.74+0.02------
2024-04-14 01:50 pmESE 6.0-----29.74-------
2024-04-14 01:00 pm NW 4.1-----29.73+0.03------
2024-04-14 12:50 pm NW 5.1-----29.73-------
2024-04-14 12:00 pmWNW 7.0-----29.72+0.04------
2024-04-14 11:50 amWNW 7.0-----29.72-------
2024-04-14 11:00 am W 6.0-----29.72+0.05------
2024-04-14 10:50 amWSW 6.0-----29.72-------
2024-04-14 10:00 am W 6.0-----29.70+0.05------
2024-04-14 09:50 amWNW 7.0-----29.70-------
2024-04-14 09:00 am W 8.0-----29.68+0.05------
2024-04-14 08:50 am W 8.0-----29.68-------
2024-04-14 08:00 amWSW 6.0-----29.67+0.08------
2024-04-14 07:50 amWSW 7.0-----29.67-------
2024-04-14 07:00 amWSW 11.1-----29.65+0.05------
2024-04-14 06:50 amWSW 9.9-----29.65-------
2024-04-14 06:00 amWSW 7.0-----29.63+0.02------
2024-04-14 05:50 am W 5.1-----29.62-------
2024-04-14 05:00 amSSE 4.1-----29.59-0.09------
2024-04-14 04:50 am S 4.1-----29.59-------
2024-04-14 04:00 am SE 5.1-----29.60-0.12------
2024-04-14 03:50 am-------29.60-------
2024-04-14 03:00 am SE 6.0-----29.61-0.07------
2024-04-14 02:50 amESE 6.0-----29.62-------
2024-04-14 02:00 am E 5.1-----29.68-0.04------
2024-04-14 01:50 am E 8.9-----29.67-------
2024-04-14 01:00 am SE 8.0-----29.72-0.06------
2024-04-14 12:50 am SE 8.0-----29.73-------
2024-04-14 12:00 am SE 11.1-----29.68-0.15------
2024-04-13 11:50 pm SE 7.0-----29.74-------
2024-04-13 11:00 pmESE 11.1-----29.72-0.12------
2024-04-13 10:50 pmESE 9.9-----29.74-------